Lid_Strength_Index
13 12 12 13 13 12 13 13 15 14 13 12 10 11 10 10 8 8 8 7 7 7 6 6 5 5 4 4 3 2 3 2 2 2 2 2 2 2 1 1 1 1 1 1
15 12 12 13 13 12 12 12 12 12 13 9 10 9 9 9 8 8 6 6 6 5 5 5 4 4 4 4 3 3 3 3 2 2 2 2 2 2 2 1 1 1 1 2
17 13 14 16 14 13 12 12 12 15 12 10 10 9 9 8 8 7 7 6 6 5 5 5 5 4 5 4 3 4 3 3 2 2 2 2 2 2 2 2 1 2 2 2
17 15 20 14 10 10 12 11 11 10 10 9 9 8 8 7 8 7 6 6 6 5 5 5 4 4 4 3 3 3 3 3 3 3 3 2 2 2 2 2 2 2 2 2
17 19 15 13 11 12 13 13 9 10 10 9 9 8 9 6 6 7 7 6 5 4 4 4 4 3 3 3 3 3 3 3 3 3 3 3 3 3 2 2 2 2 2 2
15 18 20 15 9 7 9 15 9 8 9 8 9 13 11 8 7 7 6 5 5 4 4 3 3 3 3 3 4 4 3 3 3 3 3 3 3 2 2 2 2 2 2 2
16 17 15 9 8 7 16 15 8 8 9 9 11 10 8 7 7 6 5 5 4 4 4 3 3 3 4 3 4 3 3 3 3 4 4 3 3 2 2 2 2 2 2 2
15 17 18 7 9 12 10 10 9 9 9 9 8 8 8 7 7 6 6 5 4 4 4 3 2 4 4 5 4 4 4 4 3 4 3 3 2 2 2 2 3 3 3 3
13 14 9 8 9 8 8 10 9 8 8 8 8 8 8 8 7 7 6 6 5 6 6 5 5 4 5 5 4 4 4 5 4 3 4 3 3 3 3 3 3 3 4 4
11 11 10 9 8 8 7 8 7 7 8 7 8 8 9 9 9 9 8 8 8 8 8 8 7 6 7 6 5 4 4 4 3 3 3 3 3 3 3 3 3 4 4 4
10 9 9 9 8 7 7 7 7 6 6 8 9 9 9 9 9 10 9 9 9 9 10 10 9 9 8 7 7 6 5 5 4 4 4 5 4 4 3 2 3 3 4 4
12 9 10 9 8 6 7 7 6 7 9 8 8 9 9 10 10 10 10 10 10 11 11 11 10 9 8 8 7 7 7 6 6 5 5 4 4 3 6 9 8 9 9 5
8 6 7 7 7 6 6 6 7 8 8 9 8 8 9 10 11 11 11 12 12 12 12 12 11 10 9 8 7 7 7 6 6 5 5 4 4 4 4 6 11 10 9 10
6 6 8 7 7 6 7 8 8 9 9 9 9 10 11 12 13 13 14 13 13 13 12 11 10 10 8 7 7 6 6 7 6 5 5 4 4 3 3 4 6 7 11 8
6 6 7 7 7 8 8 9 10 11 10 10 11 13 13 14 14 14 13 12 12 11 10 9 8 8 7 6 6 5 5 5 5 5 4 3 3 3 3 4 6 10 10 11
7 7 7 8 8 9 9 10 10 11 12 13 13 14 14 14 14 13 12 12 12 12 11 9 9 8 7 7 7 6 4 6 6 4 4 4 3 4 4 6 8 9 9 12
9 9 9 10 10 9 10 10 11 12 13 14 14 14 14 14 13 13 13 12 11 12 11 10 10 9 8 8 8 7 5 5 9 5 3 3 3 4 6 7 8 9 10 11
7 8 9 9 9 9 10 11 12 13 14 14 14 14 13 13 13 13 13 12 12 12 11 11 11 10 8 6 4 4 4 3 4 4 4 4 4 6 6 7 7 9 10 12
8 9 9 9 9 10 11 12 12 13 14 14 14 13 13 13 13 13 12 13 13 14 13 12 11 10 8 6 7 4 3 3 3 4 5 8 6 7 7 7 9 10 10 10
7 7 8 9 9 10 11 10 11 13 13 12 12 13 13 13 13 13 12 13 13 13 13 12 11 10 10 7 9 5 4 4 4 5 5 5 6 7 7 10 10 10 9 9
7 9 10 10 10 10 10 10 11 12 12 12 14 14 14 14 13 13 13 14 13 13 13 12 12 12 10 9 6 5 4 4 4 5 5 6 7 8 9 9 9 9 9 9
8 9 10 10 10 11 10 11 12 12 12 13 13 13 14 14 14 13 12 14 13 14 13 13 12 13 11 11 7 7 6 6 6 6 6 6 8 8 9 8 8 9 9 9
8 7 8 9 10 11 11 11 12 12 13 13 13 13 14 14 14 15 15 13 13 14 13 13 14 14 13 8 8 8 8 8 8 8 7 8 8 8 9 9 9 9 9 10
7 7 8 8 9 10 11 11 12 11 12 12 13 13 14 14 13 13 12 13 14 13 13 14 14 13 12 10 10 9 9 9 8 8 8 11 8 8 9 9 9 9 9 9
7 8 8 9 9 10 10 10 11 11 11 11 12 11 11 11 13 13 12 13 14 13 13 14 14 13 11 11 11 11 10 10 10 9 8 8 9 9 9 9 9 9 9 9
8 9 9 9 9 10 10 10 11 10 11 11 11 11 10 10 10 10 12 13 13 14 13 13 14 13 12 12 11 11 11 11 10 10 9 9 9 9 9 9 9 9 9 9
9 9 9 9 9 9 9 9 9 10 10 10 11 10 10 10 10 11 11 11 13 13 13 14 13 14 13 13 12 12 11 11 13 11 11 10 10 10 10 10 10 9 10 10